CFG9HX EDDF-LGSA

Flight info

Callsign CFG9HX
Flight time N/A
Altitude 35000
Route CINDY8S CINDY Z74 LAMPU DCT NOMBO Y161 MAH DCT VAVOR DCT RADIZ DCT PENEP DCT DARZA DCT DEPET DCT UNIPA DCT VAKSU DCT RODON DCT DIMIS DCT IPTES UL604 TRL UL612 MANOK L612 RUSOS
Aircraft A320/M-SDE3FGHIRWY/LB1

Departure

Time N/A
Airport Frankfurt Main Airport (EDDF)

Arrival

Time 2026-05-07 17:46
Airport Chania International Airport (LGSA)
Time Latitude Longitude Altitude Speed Heading
2026-05-07 17:09 36.77460 23.42200 31565 ft 523 kts 127°
2026-05-07 17:09 36.75337 23.45796 31086 ft 518 kts 127°
2026-05-07 17:10 36.73203 23.49392 30611 ft 514 kts 127°
2026-05-07 17:10 36.71087 23.52940 29906 ft 505 kts 127°
2026-05-07 17:10 36.68996 23.56439 29439 ft 499 kts 127°
2026-05-07 17:10 36.66938 23.59882 29005 ft 492 kts 127°
2026-05-07 17:11 36.64902 23.63286 28513 ft 487 kts 127°
2026-05-07 17:11 36.62894 23.66648 28049 ft 481 kts 127°
2026-05-07 17:11 36.60902 23.69981 27621 ft 476 kts 127°
2026-05-07 17:11 36.58941 23.73258 27119 ft 472 kts 127°
2026-05-07 17:12 36.56991 23.76515 26778 ft 464 kts 127°
2026-05-07 17:12 36.55082 23.79700 26276 ft 454 kts 127°
2026-05-07 17:12 36.53223 23.82798 25780 ft 440 kts 127°
2026-05-07 17:12 36.51419 23.85809 25298 ft 428 kts 127°
2026-05-07 17:13 36.49657 23.88743 24864 ft 422 kts 127°
2026-05-07 17:13 36.47895 23.91668 24268 ft 424 kts 127°
2026-05-07 17:13 36.46112 23.94619 23288 ft 427 kts 127°
2026-05-07 17:13 36.44350 23.97534 22552 ft 418 kts 127°
2026-05-07 17:14 36.42542 24.00252 21847 ft 408 kts 137°
2026-05-07 17:14 36.40375 24.02408 21395 ft 390 kts 151°
2026-05-07 17:14 36.38012 24.03885 20972 ft 372 kts 163°
2026-05-07 17:14 36.35579 24.04702 20553 ft 353 kts 176°
2026-05-07 17:15 36.33190 24.05085 20163 ft 340 kts 178°
2026-05-07 17:15 36.30879 24.05445 19783 ft 329 kts 178°
2026-05-07 17:15 36.28613 24.05797 19412 ft 329 kts 178°
2026-05-07 17:15 36.26337 24.06146 19036 ft 329 kts 178°
2026-05-07 17:16 36.24062 24.06495 18665 ft 329 kts 178°
2026-05-07 17:16 36.21794 24.06842 18277 ft 329 kts 177°
2026-05-07 17:16 36.19521 24.07194 17870 ft 328 kts 177°
2026-05-07 17:16 36.17290 24.07543 17503 ft 326 kts 176°
2026-05-07 17:17 36.15042 24.07892 17133 ft 325 kts 176°
2026-05-07 17:17 36.12796 24.08238 16758 ft 324 kts 176°
2026-05-07 17:17 36.10563 24.08580 16404 ft 323 kts 176°
2026-05-07 17:17 36.08330 24.08923 16041 ft 323 kts 176°
2026-05-07 17:18 36.06106 24.09266 15684 ft 322 kts 176°
2026-05-07 17:18 36.03884 24.09608 15328 ft 322 kts 176°
2026-05-07 17:18 36.01662 24.09951 14970 ft 321 kts 175°
2026-05-07 17:18 35.99446 24.10293 14607 ft 321 kts 175°
2026-05-07 17:19 35.97227 24.10633 14248 ft 321 kts 175°
2026-05-07 17:19 35.95006 24.10973 13871 ft 321 kts 175°
2026-05-07 17:19 35.92784 24.11312 13479 ft 321 kts 175°
2026-05-07 17:19 35.90572 24.11651 13102 ft 319 kts 175°
2026-05-07 17:20 35.88377 24.11989 12732 ft 318 kts 175°
2026-05-07 17:20 35.86209 24.12321 12368 ft 316 kts 175°
2026-05-07 17:20 35.84031 24.12655 11997 ft 315 kts 175°
2026-05-07 17:20 35.81855 24.12990 11612 ft 314 kts 175°
2026-05-07 17:21 35.79688 24.13325 11234 ft 313 kts 175°
2026-05-07 17:21 35.77524 24.13656 10844 ft 312 kts 175°
2026-05-07 17:21 35.75370 24.13983 10454 ft 312 kts 175°
2026-05-07 17:21 35.73221 24.14308 10064 ft 311 kts 175°
2026-05-07 17:22 35.71065 24.14636 9542 ft 311 kts 174°
2026-05-07 17:22 35.68922 24.14961 9084 ft 310 kts 174°
2026-05-07 17:22 35.66813 24.15279 8658 ft 309 kts 174°
2026-05-07 17:22 35.64685 24.15599 8243 ft 307 kts 174°
2026-05-07 17:23 35.62569 24.15919 7820 ft 306 kts 174°
2026-05-07 17:23 35.60458 24.16240 7375 ft 305 kts 174°
2026-05-07 17:23 35.58355 24.16553 6941 ft 303 kts 176°
2026-05-07 17:23 35.56314 24.16279 6487 ft 290 kts 200°
2026-05-07 17:24 35.54635 24.15054 6045 ft 275 kts 225°
2026-05-07 17:24 35.53527 24.13158 5492 ft 279 kts 247°
2026-05-07 17:24 35.53133 24.10821 4931 ft 283 kts 272°
2026-05-07 17:24 35.53380 24.08473 4782 ft 271 kts 278°
2026-05-07 17:25 35.53646 24.06233 4623 ft 259 kts 277°
2026-05-07 17:25 35.53892 24.04096 4498 ft 246 kts 277°
2026-05-07 17:25 35.54125 24.02055 4346 ft 237 kts 277°
2026-05-07 17:25 35.54352 24.00065 4197 ft 234 kts 277°
2026-05-07 17:26 35.54577 23.98104 4050 ft 228 kts 277°
2026-05-07 17:26 35.54792 23.96235 3901 ft 220 kts 277°
2026-05-07 17:26 35.55104 23.94439 3737 ft 211 kts 297°
2026-05-07 17:26 35.56073 23.93166 3601 ft 204 kts 334°
2026-05-07 17:27 35.57370 23.92849 3546 ft 182 kts
2026-05-07 17:27 35.58477 23.93380 3433 ft 164 kts 39°
2026-05-07 17:27 35.59155 23.94409 3350 ft 151 kts 68°
2026-05-07 17:27 35.59350 23.95647 3276 ft 147 kts 95°
2026-05-07 17:28 35.59093 23.96841 3218 ft 144 kts 114°
2026-05-07 17:28 35.58711 23.97987 3217 ft 145 kts 113°
2026-05-07 17:28 35.58329 23.99147 3031 ft 146 kts 112°
2026-05-07 17:28 35.57952 24.00300 2811 ft 145 kts 112°
2026-05-07 17:29 35.57578 24.01445 2585 ft 144 kts 112°
2026-05-07 17:29 35.57205 24.02588 2363 ft 144 kts 112°
2026-05-07 17:29 35.56834 24.03722 2133 ft 143 kts 112°
2026-05-07 17:29 35.56463 24.04854 1892 ft 143 kts 112°
2026-05-07 17:30 35.56088 24.05978 1654 ft 142 kts 112°
2026-05-07 17:30 35.55713 24.07095 1458 ft 141 kts 111°
2026-05-07 17:30 35.55376 24.08231 1286 ft 142 kts 110°
2026-05-07 17:30 35.55026 24.09357 1133 ft 141 kts 115°
2026-05-07 17:31 35.54628 24.10459 1007 ft 142 kts 112°
2026-05-07 17:31 35.54279 24.11596 870 ft 143 kts 112°
2026-05-07 17:31 35.53894 24.12749 661 ft 151 kts 111°
2026-05-07 17:31 35.53475 24.14061 1098 ft 172 kts 111°
2026-05-07 17:32 35.53038 24.15445 1906 ft 178 kts 112°
2026-05-07 17:32 35.52591 24.16925 2460 ft 195 kts 111°
2026-05-07 17:32 35.52086 24.18590 2694 ft 221 kts 111°
2026-05-07 17:32 35.51720 24.19800 3085 ft 227 kts 111°
2026-05-07 17:33 35.50992 24.22215 3207 ft 226 kts 110°
2026-05-07 17:33 35.50784 24.24110 3582 ft 228 kts 82°
2026-05-07 17:33 35.51138 24.26011 4441 ft 229 kts 75°
2026-05-07 17:33 35.51585 24.27907 5252 ft 232 kts 74°
2026-05-07 17:34 35.52196 24.29771 5828 ft 240 kts 55°
2026-05-07 17:34 35.53394 24.31166 5972 ft 238 kts 28°
2026-05-07 17:34 35.54965 24.31746 6006 ft 236 kts
2026-05-07 17:34 35.56565 24.31394 6006 ft 235 kts 334°
2026-05-07 17:35 35.57862 24.30215 6011 ft 234 kts 308°
2026-05-07 17:35 35.58587 24.28480 6012 ft 233 kts 282°
2026-05-07 17:35 35.58615 24.26503 6007 ft 233 kts 256°
2026-05-07 17:35 35.57925 24.24716 6009 ft 234 kts 230°
2026-05-07 17:36 35.56810 24.23259 5885 ft 233 kts 226°
2026-05-07 17:36 35.55685 24.21826 5527 ft 233 kts 226°
2026-05-07 17:36 35.54566 24.20395 5202 ft 231 kts 225°
2026-05-07 17:36 35.53495 24.18942 4953 ft 227 kts 234°
2026-05-07 17:37 35.52808 24.17241 4849 ft 216 kts 253°
2026-05-07 17:37 35.52591 24.15459 4847 ft 210 kts 270°
2026-05-07 17:37 35.52752 24.13685 4802 ft 210 kts 277°
2026-05-07 17:37 35.52957 24.11958 4657 ft 199 kts 277°
2026-05-07 17:38 35.53150 24.10311 4463 ft 191 kts 277°
2026-05-07 17:38 35.53335 24.08732 4275 ft 183 kts 277°
2026-05-07 17:38 35.53509 24.07248 4104 ft 173 kts 277°
2026-05-07 17:38 35.53676 24.05821 3929 ft 165 kts 277°
2026-05-07 17:39 35.53834 24.04462 3753 ft 157 kts 277°
2026-05-07 17:39 35.53985 24.03143 3582 ft 154 kts 277°
2026-05-07 17:39 35.54135 24.01843 3415 ft 154 kts 277°
2026-05-07 17:39 35.54285 24.00548 3250 ft 152 kts 277°
2026-05-07 17:40 35.54431 23.99274 3165 ft 150 kts 277°
2026-05-07 17:40 35.54577 23.98005 3110 ft 149 kts 277°
2026-05-07 17:40 35.54723 23.96739 3112 ft 150 kts 277°
2026-05-07 17:40 35.54870 23.95474 3114 ft 150 kts 277°
2026-05-07 17:41 35.55154 23.94248 3100 ft 151 kts 299°
2026-05-07 17:41 35.55869 23.93327 3102 ft 151 kts 333°
2026-05-07 17:41 35.56882 23.93131 3108 ft 150 kts 14°
2026-05-07 17:41 35.57752 23.93775 3113 ft 147 kts 53°
2026-05-07 17:42 35.58112 23.94474 3135 ft 147 kts 60°
2026-05-07 17:42 35.58634 23.95556 3121 ft 147 kts 61°
2026-05-07 17:42 35.58941 23.97131 3102 ft 146 kts 98°
2026-05-07 17:42 35.58621 23.98310 2870 ft 145 kts 113°
2026-05-07 17:43 35.58240 23.99452 2658 ft 143 kts 112°
2026-05-07 17:43 35.57867 24.00579 2445 ft 142 kts 112°
2026-05-07 17:43 35.57614 24.01347 2307 ft 143 kts 112°
2026-05-07 17:43 35.57231 24.02508 2131 ft 150 kts 112°
2026-05-07 17:44 35.56840 24.03699 1969 ft 149 kts 112°
2026-05-07 17:44 35.56449 24.04874 1735 ft 148 kts 112°
2026-05-07 17:44 35.56069 24.06016 1543 ft 144 kts 112°
2026-05-07 17:44 35.55706 24.07173 1401 ft 146 kts 111°
2026-05-07 17:45 35.55345 24.08331 1272 ft 145 kts 113°
2026-05-07 17:45 35.54952 24.09508 1125 ft 154 kts 114°
2026-05-07 17:45 35.54541 24.10740 980 ft 159 kts 112°
2026-05-07 17:45 35.54134 24.12010 767 ft 157 kts 112°
2026-05-07 17:46 35.53741 24.13218 552 ft 148 kts 112°
2026-05-07 17:46 35.53381 24.14328 492 ft 125 kts 111°
2026-05-07 17:46 35.53172 24.14971 488 ft 38 kts 112°
2026-05-07 17:46 35.53197 24.15132 485 ft 19 kts 23°
2026-05-07 17:47 35.53284 24.15154 491 ft 10 kts 333°
2026-05-07 17:47 35.53317 24.15092 492 ft 8 kts 287°
2026-05-07 17:47 35.53334 24.15034 497 ft 7 kts 290°
2026-05-07 17:47 35.53350 24.14987 489 ft 5 kts 294°
2026-05-07 17:48 35.53384 24.14887 492 ft 22 kts 292°
2026-05-07 17:48 35.53446 24.14694 497 ft 24 kts 292°
2026-05-07 17:48 35.53502 24.14520 495 ft 17 kts 291°
2026-05-07 17:48 35.53550 24.14376 498 ft 16 kts 293°
2026-05-07 17:49 35.53645 24.14362 498 ft 14 kts 12°
2026-05-07 17:49 35.53709 24.14271 490 ft 16 kts 291°
2026-05-07 17:49 35.53750 24.14142 496 ft 14 kts 291°
2026-05-07 17:49 35.53764 24.14100 496 ft 8 kts 292°
2026-05-07 17:50 35.53795 24.14007 494 ft 6 kts 291°
2026-05-07 17:50 35.53797 24.13998 491 ft 0 kts 291°
2026-05-07 17:50 35.53802 24.13991 492 ft 5 kts 312°
2026-05-07 17:50 35.53850 24.13999 498 ft 7 kts 20°
2026-05-07 17:51 35.53884 24.14016 496 ft 3 kts 21°
2026-05-07 17:51 35.53890 24.14018 495 ft 0 kts 21°